TimeMDT,TemperatureF,Dew PointF,Humidity,Sea Level PressureIn,VisibilityMPH,Wind Direction,Wind SpeedMPH,Gust SpeedMPH,PrecipitationIn,Events,Conditions,WindDirDegrees,DateUTC
12:53 AM,36.0,28.9,76,29.62,10.0,NNE,25.3,32.2,N/A,,Clear,30,2013-03-23 06:53:00
1:53 AM,35.1,30.0,82,29.69,10.0,North,26.5,32.2,N/A,,Mostly Cloudy,10,2013-03-23 07:53:00
2:48 AM,35.6,30.2,81,29.74,10.0,North,26.5,33.4,N/A,,Overcast,360,2013-03-23 08:48:00
2:53 AM,36.0,30.0,79,29.68,10.0,North,25.3,-,N/A,,Overcast,10,2013-03-23 08:53:00
3:53 AM,34.0,28.9,82,29.71,10.0,North,19.6,-,N/A,,Overcast,360,2013-03-23 09:53:00
4:53 AM,34.0,30.9,89,29.71,4.0,NNE,17.3,-,N/A,,Overcast,30,2013-03-23 10:53:00
5:53 AM,32.0,30.0,92,29.74,4.0,NNE,17.3,-,N/A,,Overcast,30,2013-03-23 11:53:00
6:53 AM,32.0,30.0,92,29.74,4.0,East,18.4,-,N/A,,Overcast,80,2013-03-23 12:53:00
7:53 AM,32.0,28.9,88,29.76,4.0,ENE,17.3,-,N/A,,Overcast,70,2013-03-23 13:53:00
8:15 AM,30.2,30.2,100,29.79,2.5,ENE,16.1,-,N/A,,Overcast,70,2013-03-23 14:15:00
8:22 AM,30.2,30.2,100,29.79,1.8,ENE,15.0,-,0.00,Rain,Light Freezing Rain,70,2013-03-23 14:22:00
8:29 AM,30.2,30.2,100,29.80,2.0,ENE,13.8,-,0.00,,Overcast,70,2013-03-23 14:29:00
8:41 AM,30.2,28.4,93,29.80,1.8,ENE,17.3,-,0.00,Rain,Light Freezing Rain,70,2013-03-23 14:41:00
8:53 AM,30.9,28.9,92,29.78,1.8,ENE,17.3,-,0.00,Rain,Light Freezing Rain,70,2013-03-23 14:53:00
9:03 AM,30.2,28.4,93,29.79,2.0,ENE,17.3,-,0.00,Rain,Light Freezing Rain,70,2013-03-23 15:03:00
9:38 AM,30.2,28.4,93,29.79,2.0,East,20.7,-,0.00,Snow,Light Snow,80,2013-03-23 15:38:00
9:53 AM,30.9,28.9,92,29.78,2.0,East,18.4,-,0.00,Snow,Light Snow,80,2013-03-23 15:53:00
10:18 AM,30.2,28.4,93,29.79,2.5,East,16.1,-,0.00,Snow,Light Snow,80,2013-03-23 16:18:00
10:48 AM,30.2,28.4,93,29.80,1.5,East,16.1,26.5,0.01,Snow,Light Snow,80,2013-03-23 16:48:00
10:53 AM,30.9,28.9,92,29.80,1.5,East,19.6,26.5,0.01,Snow,Light Snow,80,2013-03-23 16:53:00
11:28 AM,30.2,28.4,93,29.81,2.5,ENE,21.9,-,0.00,Snow,Light Snow,70,2013-03-23 17:28:00
11:53 AM,30.0,28.0,92,29.83,2.5,NE,17.3,26.5,0.00,Snow,Light Snow,50,2013-03-23 17:53:00
12:08 PM,30.2,26.6,86,29.83,1.2,NE,21.9,-,0.00,Snow,Light Snow,50,2013-03-23 18:08:00
12:17 PM,28.4,26.6,93,29.84,0.8,NE,24.2,29.9,0.00,Snow,Light Snow,40,2013-03-23 18:17:00
12:53 PM,28.0,25.0,88,29.89,0.2,NE,27.6,38.0,0.00,Fog-Snow,Heavy Snow,50,2013-03-23 18:53:00
1:53 PM,21.9,19.0,89,29.96,0.2,North,39.1,49.5,0.02,Fog,Light Freezing Fog,10,2013-03-23 19:53:00
2:25 PM,23.0,19.4,86,29.94,0.2,North,38.0,49.5,N/A,Fog,Light Freezing Fog,10,2013-03-23 20:25:00
2:46 PM,23.0,19.4,86,29.95,0.2,North,39.1,47.2,N/A,Fog,Light Freezing Fog,360,2013-03-23 20:46:00
2:53 PM,23.0,19.0,85,30.00,0.2,North,39.1,48.3,N/A,Fog,Light Freezing Fog,360,2013-03-23 20:53:00
3:40 PM,21.2,17.6,86,30.01,1.2,North,33.4,40.3,0.01,,Overcast,360,2013-03-23 21:40:00
3:53 PM,21.0,17.1,85,30.07,2.0,North,33.4,43.7,0.01,,Overcast,360,2013-03-23 21:53:00
4:07 PM,21.2,17.6,86,30.02,3.0,North,31.1,42.6,N/A,,Haze,360,2013-03-23 22:07:00
4:24 PM,21.2,17.6,86,30.03,1.8,North,32.2,40.3,N/A,,Overcast,350,2013-03-23 22:24:00
4:29 PM,21.2,17.6,86,30.03,0.8,North,32.2,39.1,N/A,,Overcast,350,2013-03-23 22:29:00
4:36 PM,21.2,17.6,86,30.04,0.5,North,33.4,39.1,N/A,Fog,Light Freezing Fog,350,2013-03-23 22:36:00
4:53 PM,21.0,18.0,88,30.12,0.2,North,27.6,41.4,N/A,Fog,Light Freezing Fog,350,2013-03-23 22:53:00
5:25 PM,21.2,17.6,86,30.06,1.2,North,26.5,33.4,N/A,,Overcast,360,2013-03-23 23:25:00
5:36 PM,21.2,17.6,86,30.07,1.0,North,29.9,36.8,0.00,Snow,Light Snow,350,2013-03-23 23:36:00
5:43 PM,21.2,17.6,86,30.08,1.5,North,28.8,41.4,0.00,,Haze,360,2013-03-23 23:43:00
5:53 PM,21.9,17.1,82,30.15,1.8,North,27.6,34.5,0.00,Snow,Light Snow,350,2013-03-23 23:53:00
6:10 PM,21.2,17.6,86,30.10,2.5,North,25.3,35.7,0.00,,Overcast,350,2013-03-24 00:10:00
6:21 PM,21.2,17.6,86,30.10,4.0,North,23.0,33.4,0.00,,Overcast,350,2013-03-24 00:21:00
6:53 PM,21.0,16.0,81,30.19,3.0,North,29.9,34.5,0.00,,Haze,350,2013-03-24 00:53:00
7:32 PM,21.2,17.6,86,30.14,2.5,North,18.4,-,0.00,Snow,Light Snow,350,2013-03-24 01:32:00
7:41 PM,21.2,17.6,86,30.14,4.0,North,18.4,-,0.00,,Overcast,350,2013-03-24 01:41:00
7:48 PM,21.2,17.6,86,30.14,6.0,North,17.3,-,0.00,,Overcast,350,2013-03-24 01:48:00
7:53 PM,21.0,17.1,85,30.21,6.0,North,19.6,25.3,0.00,,Overcast,350,2013-03-24 01:53:00
8:53 PM,21.9,16.0,78,30.24,9.0,North,16.1,-,N/A,,Overcast,350,2013-03-24 02:53:00
9:53 PM,21.9,16.0,78,30.25,10.0,NNW,10.4,-,N/A,,Overcast,330,2013-03-24 03:53:00
10:53 PM,21.9,15.1,75,30.25,10.0,WNW,11.5,-,N/A,,Overcast,300,2013-03-24 04:53:00
11:53 PM,19.0,12.9,77,30.27,10.0,West,8.1,-,N/A,,Mostly Cloudy,280,2013-03-24 05:53:00